GFSWCAN_700_temp_231.txt.gz
Temp
-10 -10 -10 -9 -8 -7 -6 -6 -5 -5 -6 -5 -3 -3 -3 -3 -3 -3 -2 -2 -1 -2 -2 -2 -2 -1 -1 -1 -1 0 -0 -0 -1 -0 -1 -1 -1 -0 -1 1 2 1 0 -0 -0 -0 0 3 3 3 5 4 5 5
-10 -10 -9 -9 -8 -7 -6 -6 -6 -5 -5 -4 -4 -4 -3 -3 -3 -3 -3 -3 -3 -3 -3 -3 -3 -2 -2 -1 -1 -1 -0 -1 -0 -0 -0 -1 -1 -0 0 0 1 1 1 0 1 1 5 5 2 3 3 3 3 3
-9 -8 -8 -8 -8 -7 -7 -6 -6 -6 -5 -5 -3 -3 -3 -3 -5 -5 -4 -4 -4 -4 -4 -3 -3 -3 -3 -3 -2 -2 -2 -1 -1 -1 -1 -1 -1 -2 -1 -1 -0 1 1 1 1 1 2 2 2 2 2 2 2 1
-8 -7 -6 -6 -7 -7 -6 -6 -6 -6 -6 -5 -5 -5 -5 -5 -5 -5 -4 -5 -6 -6 -6 -5 -5 -4 -4 -4 -4 -4 -3 -3 -2 -2 -2 -2 -2 -3 -4 -3 -3 -1 -0 0 0 0 1 1 1 1 1 0 -0 -0
-8 -6 -6 -5 -5 -5 -6 -6 -6 -6 -6 -6 -5 -5 -5 -5 -6 -6 -7 -7 -7 -7 -8 -8 -6 -5 -5 -5 -5 -5 -5 -5 -4 -4 -5 -5 -5 -5 -5 -5 -3 -1 -2 -2 -2 -2 -2 -1 -1 -1 -0 -1 -1 -0
-6 -5 -4 -4 -4 -4 -5 -5 -6 -6 -6 -6 -6 -6 -6 -6 -6 -6 -9 -9 -9 -9 -9 -9 -8 -7 -6 -6 -6 -6 -6 -7 -6 -7 -6 -6 -6 -7 -7 -6 -2 -3 -4 -4 -4 -4 -2 -3 -3 -2 -2 -3 -3 -2
-6 -4 -3 -3 -3 -4 -5 -5 -6 -6 -7 -7 -7 -7 -7 -7 -7 -8 -9 -8 -9 -9 -9 -9 -9 -8 -7 -7 -6 -7 -8 -8 -8 -8 -8 -8 -7 -8 -8 -7 -2 -3 -4 -5 -5 -5 -3 -2 -3 -3 -4 -4 -3 -4
-7 -6 -4 -3 -4 -5 -6 -7 -7 -7 -8 -8 -8 -8 -8 -9 -9 -9 -9 -8 -9 -9 -9 -9 -9 -8 -8 -8 -8 -8 -8 -8 -9 -9 -8 -8 -8 -8 -8 -4 -3 -3 -6 -7 -6 -6 -5 -4 -4 -4 -4 -5 -3 -3
-8 -8 -8 -7 -7 -8 -9 -9 -9 -9 -9 -9 -9 -9 -9 -9 -9 -9 -9 -9 -9 -9 -9 -8 -9 -8 -8 -8 -8 -8 -8 -9 -9 -8 -8 -9 -9 -8 -6 -6 -6 -6 -7 -7 -6 -7 -6 -6 -5 -7 -7 -7 -7 -5
-8 -8 -8 -9 -9 -9 -9 -9 -9 -9 -9 -9 -9 -10 -10 -10 -9 -10 -9 -9 -9 -9 -9 -8 -8 -8 -8 -8 -8 -8 -8 -9 -9 -8 -8 -8 -8 -6 -7 -7 -7 -7 -7 -7 -7 -7 -7 -7 -7 -7 -7 -8 -7 -7
-9 -9 -9 -9 -9 -10 -10 -10 -10 -10 -10 -10 -10 -9 -9 -9 -9 -9 -9 -9 -9 -9 -8 -9 -9 -9 -9 -8 -9 -10 -9 -9 -9 -8 -9 -8 -7 -6 -7 -6 -7 -6 -6 -7 -7 -7 -7 -7 -8 -8 -8 -7 -7 -7
-10 -9 -9 -9 -9 -10 -9 -10 -9 -10 -10 -10 -9 -9 -10 -10 -9 -9 -9 -9 -9 -9 -8 -9 -9 -9 -9 -9 -9 -9 -9 -9 -9 -9 -9 -8 -7 -7 -7 -7 -7 -7 -7 -7 -7 -7 -7 -7 -7 -7 -7 -7 -8 -8
-10 -10 -10 -9 -9 -10 -10 -10 -10 -10 -9 -9 -10 -10 -9 -9 -9 -9 -9 -9 -9 -9 -8 -7 -8 -8 -9 -9 -10 -9 -9 -9 -9 -9 -9 -7 -7 -7 -7 -7 -7 -7 -7 -8 -8 -8 -8 -8 -7 -7 -8 -8 -9 -9
-11 -10 -10 -9 -9 -10 -10 -10 -10 -10 -10 -10 -9 -9 -9 -9 -9 -9 -8 -8 -9 -8 -7 -7 -7 -8 -9 -10 -10 -9 -9 -9 -10 -9 -8 -8 -8 -8 -7 -8 -8 -8 -8 -8 -9 -8 -9 -8 -9 -9 -10 -10 -11 -11
-11 -11 -11 -10 -10 -10 -10 -10 -10 -10 -10 -10 -9 -9 -9 -8 -8 -8 -8 -8 -8 -8 -8 -8 -9 -10 -10 -10 -10 -10 -10 -10 -9 -7 -8 -8 -8 -8 -8 -8 -8 -9 -9 -9 -10 -10 -10 -10 -10 -10 -10 -11 -11 -11
-11 -11 -11 -11 -11 -10 -10 -10 -10 -10 -9 -9 -9 -9 -9 -9 -8 -8 -8 -8 -8 -9 -9 -10 -10 -10 -9 -10 -10 -10 -9 -8 -8 -8 -8 -8 -9 -9 -9 -9 -9 -10 -10 -10 -10 -10 -10 -10 -10 -11 -11 -11 -11 -11
-11 -11 -11 -11 -11 -11 -11 -11 -10 -10 -10 -9 -9 -9 -9 -9 -9 -9 -9 -9 -9 -9 -10 -10 -10 -9 -10 -10 -10 -9 -9 -9 -9 -9 -8 -9 -9 -9 -9 -10 -10 -10 -11 -10 -10 -11 -11 -11 -11 -11 -11 -11 -12 -12
-11 -11 -11 -11 -11 -11 -11 -11 -11 -10 -10 -9 -9 -9 -9 -9 -9 -8 -8 -8 -9 -9 -10 -10 -10 -10 -10 -9 -9 -9 -9 -8 -9 -9 -9 -9 -9 -9 -10 -10 -10 -10 -11 -11 -11 -11 -11 -11 -11 -12 -12 -12 -12 -12
-11 -11 -11 -11 -11 -11 -11 -10 -10 -10 -10 -9 -9 -9 -9 -9 -9 -9 -9 -9 -9 -9 -10 -10 -11 -10 -9 -9 -9 -9 -9 -9 -9 -9 -9 -9 -9 -9 -10 -10 -10 -11 -11 -11 -11 -11 -11 -12 -12 -12 -12 -13 -13 -13
-11 -11 -11 -11 -11 -11 -11 -11 -10 -10 -10 -10 -10 -10 -10 -10 -9 -9 -9 -9 -10 -10 -11 -11 -11 -10 -10 -10 -10 -10 -10 -10 -9 -9 -9 -9 -10 -10 -10 -10 -10 -11 -11 -11 -11 -12 -12 -12 -12 -13 -13 -13 -13 -13
-11 -11 -11 -11 -11 -11 -11 -11 -11 -11 -10 -10 -10 -10 -11 -10 -10 -10 -10 -10 -10 -11 -11 -11 -11 -10 -10 -10 -10 -10 -10 -10 -10 -10 -10 -10 -10 -11 -11 -11 -11 -11 -12 -12 -12 -12 -12 -12 -13 -13 -13 -13 -13 -13
-11 -12 -12 -12 -12 -12 -12 -12 -12 -12 -11 -12 -11 -11 -11 -11 -12 -12 -12 -12 -11 -10 -11 -11 -10 -10 -10 -10 -10 -10 -10 -10 -10 -10 -10 -10 -11 -11 -11 -11 -11 -11 -12 -12 -12 -12 -12 -12 -13 -13 -13 -13 -13 -14
-12 -12 -12 -12 -12 -12 -12 -12 -12 -12 -12 -13 -12 -11 -12 -12 -12 -12 -12 -12 -11 -10 -10 -10 -11 -11 -11 -10 -10 -10 -10 -10 -10 -10 -11 -11 -11 -11 -11 -12 -11 -12 -12 -12 -12 -12 -13 -13 -13 -13 -13 -13 -14 -14
-13 -13 -13 -13 -13 -13 -12 -12 -12 -13 -12 -13 -13 -13 -12 -12 -12 -12 -12 -12 -12 -11 -10 -10 -11 -11 -11 -11 -10 -10 -10 -10 -10 -10 -11 -11 -11 -11 -12 -12 -12 -12 -12 -12 -12 -13 -13 -13 -13 -13 -14 -14 -15 -16
-14 -13 -13 -13 -13 -13 -12 -12 -12 -13 -13 -13 -12 -13 -12 -13 -12 -13 -12 -9 -10 -10 -10 -10 -10 -10 -10 -11 -11 -10 -10 -11 -11 -11 -11 -12 -11 -12 -12 -12 -12 -12 -12 -13 -13 -13 -13 -13 -14 -14 -15 -15 -16 -17
-14 -13 -13 -13 -13 -12 -12 -12 -13 -12 -13 -13 -13 -13 -12 -12 -12 -10 -9 -8 -9 -9 -9 -9 -10 -10 -10 -10 -10 -10 -10 -11 -11 -11 -11 -12 -12 -12 -12 -12 -12 -12 -12 -12 -13 -13 -13 -14 -14 -15 -15 -16 -17 -19
-14 -13 -13 -13 -12 -13 -13 -13 -13 -13 -13 -13 -13 -12 -12 -11 -10 -10 -9 -9 -9 -9 -9 -9 -9 -9 -10 -10 -10 -10 -10 -11 -11 -11 -12 -12 -12 -12 -12 -12 -12 -13 -12 -13 -13 -13 -14 -14 -15 -15 -16 -17 -18 -19
-15 -14 -13 -13 -13 -12 -12 -13 -13 -12 -12 -12 -13 -12 -11 -11 -11 -9 -10 -9 -9 -9 -9 -9 -9 -9 -9 -9 -10 -10 -10 -11 -11 -11 -11 -11 -12 -12 -12 -12 -12 -12 -13 -13 -13 -14 -14 -14 -15 -16 -17 -18 -19 -20
-15 -15 -14 -13 -13 -13 -13 -12 -12 -12 -11 -11 -11 -12 -11 -10 -10 -10 -10 -10 -9 -9 -9 -9 -9 -9 -9 -10 -10 -10 -11 -11 -11 -11 -12 -12 -12 -12 -12 -12 -12 -13 -13 -13 -13 -14 -14 -15 -16 -17 -18 -19 -20 -21
-16 -15 -15 -14 -13 -13 -12 -12 -12 -12 -12 -12 -11 -11 -11 -11 -11 -11 -11 -10 -10 -9 -9 -9 -9 -9 -10 -10 -10 -11 -11 -11 -11 -11 -12 -12 -12 -12 -12 -12 -13 -13 -13 -13 -14 -14 -15 -16 -17 -18 -19 -20 -20 -21
-16 -15 -15 -15 -14 -14 -13 -12 -12 -12 -12 -12 -12 -12 -12 -12 -11 -11 -11 -11 -10 -10 -10 -10 -10 -10 -11 -11 -11 -11 -11 -12 -12 -12 -12 -12 -12 -12 -12 -12 -13 -13 -13 -13 -14 -15 -16 -16 -17 -18 -19 -20 -21 -21
-16 -16 -15 -15 -15 -14 -14 -14 -13 -13 -13 -13 -12 -12 -12 -12 -12 -11 -11 -11 -11 -10 -10 -10 -11 -11 -11 -11 -11 -11 -12 -12 -12 -12 -12 -13 -13 -13 -13 -13 -13 -13 -13 -14 -15 -15 -16 -17 -18 -19 -19 -20 -21 -21
-17 -16 -16 -16 -15 -15 -15 -15 -14 -14 -14 -13 -13 -13 -13 -12 -12 -12 -11 -11 -11 -11 -11 -11 -11 -11 -11 -12 -12 -12 -12 -12 -13 -13 -13 -13 -13 -13 -13 -13 -13 -13 -14 -14 -15 -16 -17 -17 -18 -19 -19 -20 -21 -21

GFSWCAN_700_temp_237.txt.gz
Temp
-10 -11 -11 -10 -10 -10 -10 -10 -9 -9 -8 -6 -7 -3 -2 -2 -2 -3 -3 -2 -2 -2 -2 -1 -2 -1 -0 -0 1 1 1 1 1 -0 -1 -0 -0 1 1 2 2 2 1 0 0 0 0 2 2 2 2 2 3 3
-11 -10 -10 -10 -9 -9 -9 -9 -9 -9 -8 -6 -6 -4 -4 -4 -3 -3 -2 -2 -2 -2 -2 -2 -1 -1 -1 -0 -1 0 0 0 -0 -0 -1 -1 -0 -0 -0 -0 0 1 1 1 1 1 1 1 1 1 1 1 2 1
-10 -9 -8 -9 -9 -8 -8 -9 -9 -9 -9 -6 -5 -5 -3 -3 -4 -3 -2 -3 -2 -2 -2 -2 -2 -2 -1 -1 -1 -1 -1 -1 -1 -0 -1 -1 -1 -1 -1 -1 -1 -0 1 -0 0 0 0 0 0 0 1 1 2 1
-8 -7 -7 -7 -8 -8 -8 -8 -9 -8 -9 -7 -5 -5 -5 -4 -3 -3 -3 -2 -2 -2 -2 -3 -2 -2 -2 -2 -1 -1 -2 -1 -1 -1 -1 -1 -1 -1 -2 -1 -1 -0 -0 -0 -0 -0 -0 -0 0 0 0 0 0 -1
-6 -5 -5 -6 -7 -8 -8 -8 -9 -9 -9 -9 -7 -5 -5 -5 -4 -4 -3 -3 -3 -3 -3 -4 -4 -3 -3 -2 -3 -1 -2 -2 -2 -1 -2 -3 -3 -3 -3 -3 -2 -1 -1 -1 -1 -1 -1 -1 -1 -1 -1 -1 -1 -0
-6 -5 -5 -5 -6 -7 -8 -7 -8 -9 -9 -9 -8 -7 -5 -5 -5 -4 -4 -4 -4 -3 -3 -5 -5 -5 -4 -4 -4 -4 -4 -4 -4 -4 -4 -4 -4 -4 -4 -3 -3 -4 -4 -4 -3 -2 -2 -2 -1 -1 -1 0 -0 -2
-7 -5 -5 -6 -6 -7 -7 -7 -7 -8 -9 -9 -9 -9 -9 -8 -8 -5 -5 -6 -5 -4 -4 -6 -7 -6 -5 -5 -6 -6 -5 -5 -5 -4 -4 -4 -4 -5 -4 -3 -3 -4 -5 -5 -4 -4 -4 -4 -4 -5 -5 -5 -5 -5
-9 -7 -6 -6 -7 -7 -7 -8 -8 -7 -8 -9 -9 -9 -9 -9 -8 -6 -7 -6 -7 -7 -6 -8 -8 -8 -8 -7 -8 -8 -7 -6 -6 -6 -6 -6 -6 -6 -5 -3 -4 -5 -5 -5 -5 -5 -5 -5 -6 -5 -6 -6 -6 -6
-10 -9 -8 -8 -8 -8 -8 -8 -8 -8 -8 -8 -8 -9 -9 -9 -8 -8 -9 -9 -9 -8 -8 -8 -8 -9 -9 -9 -8 -8 -8 -8 -7 -6 -6 -6 -7 -6 -4 -5 -6 -6 -6 -6 -6 -6 -6 -6 -6 -6 -6 -6 -6 -6
-10 -10 -10 -9 -9 -9 -9 -9 -9 -8 -8 -9 -10 -10 -10 -10 -9 -9 -10 -9 -9 -8 -8 -8 -8 -8 -8 -9 -9 -8 -8 -8 -7 -7 -7 -7 -6 -6 -5 -6 -7 -6 -6 -7 -6 -6 -6 -6 -6 -6 -6 -6 -6 -6
-10 -10 -10 -10 -10 -9 -9 -9 -9 -9 -9 -9 -9 -9 -10 -9 -9 -9 -9 -9 -8 -8 -8 -8 -8 -7 -8 -7 -7 -8 -8 -8 -8 -8 -8 -8 -7 -6 -6 -6 -7 -7 -7 -7 -6 -6 -6 -6 -6 -6 -7 -7 -7 -8
-10 -10 -10 -10 -10 -10 -10 -10 -10 -9 -10 -9 -9 -9 -10 -9 -9 -9 -9 -8 -8 -8 -8 -8 -8 -8 -8 -8 -8 -8 -8 -8 -8 -8 -8 -8 -7 -7 -7 -6 -7 -7 -7 -7 -7 -7 -7 -7 -7 -7 -7 -8 -8 -8
-10 -10 -10 -10 -10 -10 -10 -10 -10 -9 -9 -9 -9 -9 -9 -9 -8 -8 -8 -8 -8 -8 -8 -8 -8 -8 -8 -8 -8 -8 -8 -8 -8 -8 -8 -7 -7 -7 -7 -7 -7 -7 -7 -7 -7 -7 -8 -7 -8 -8 -8 -8 -8 -8
-10 -10 -9 -9 -10 -10 -10 -10 -10 -10 -10 -9 -9 -9 -9 -8 -9 -8 -8 -8 -7 -7 -7 -8 -7 -8 -8 -8 -8 -8 -8 -8 -8 -9 -8 -7 -7 -7 -7 -7 -7 -7 -7 -8 -8 -8 -8 -8 -9 -9 -9 -9 -10 -10
-10 -10 -10 -9 -10 -10 -10 -10 -10 -10 -9 -9 -9 -9 -9 -8 -8 -8 -8 -7 -7 -7 -8 -8 -9 -8 -8 -8 -8 -8 -9 -9 -9 -8 -7 -7 -7 -7 -7 -7 -7 -8 -8 -9 -9 -9 -9 -9 -9 -10 -10 -10 -10 -10
-10 -10 -10 -10 -10 -10 -10 -10 -10 -10 -9 -9 -9 -9 -9 -8 -8 -8 -8 -8 -8 -8 -8 -9 -9 -9 -8 -8 -8 -8 -9 -8 -8 -8 -7 -7 -7 -8 -8 -8 -8 -8 -9 -9 -9 -9 -10 -10 -10 -10 -10 -11 -11 -11
-10 -10 -10 -10 -10 -10 -10 -10 -10 -10 -9 -10 -9 -9 -9 -8 -8 -8 -8 -8 -8 -9 -9 -9 -8 -8 -9 -8 -9 -8 -8 -8 -8 -7 -8 -8 -8 -8 -8 -8 -8 -8 -9 -10 -10 -10 -10 -10 -10 -11 -11 -11 -11 -11
-9 -10 -10 -10 -10 -11 -10 -10 -10 -10 -10 -10 -9 -9 -9 -8 -8 -8 -8 -8 -8 -9 -9 -9 -9 -9 -8 -9 -8 -8 -8 -8 -8 -8 -8 -8 -8 -8 -9 -9 -9 -10 -10 -10 -10 -10 -10 -10 -11 -11 -11 -11 -11 -12
-10 -11 -11 -10 -10 -10 -11 -10 -10 -10 -10 -10 -9 -9 -9 -9 -9 -9 -8 -8 -9 -9 -9 -9 -9 -9 -9 -9 -8 -8 -8 -8 -8 -9 -9 -9 -9 -9 -9 -9 -9 -10 -10 -10 -10 -11 -11 -11 -11 -11 -12 -12 -12 -12
-11 -11 -11 -11 -11 -11 -11 -11 -10 -10 -10 -10 -10 -9 -9 -9 -9 -9 -9 -9 -9 -9 -9 -9 -9 -9 -9 -8 -8 -8 -9 -9 -9 -9 -9 -9 -9 -9 -9 -9 -9 -10 -10 -11 -11 -11 -11 -11 -12 -12 -12 -12 -12 -12
-11 -11 -11 -11 -11 -11 -11 -11 -11 -10 -11 -11 -10 -10 -10 -10 -9 -9 -9 -10 -9 -9 -9 -8 -8 -8 -8 -9 -9 -9 -9 -9 -9 -9 -9 -9 -9 -9 -9 -10 -10 -11 -11 -11 -11 -11 -11 -11 -11 -12 -12 -12 -12 -12
-11 -11 -11 -12 -12 -12 -11 -11 -11 -11 -11 -11 -11 -11 -11 -11 -10 -10 -11 -11 -10 -9 -9 -9 -9 -9 -9 -9 -10 -10 -10 -9 -9 -9 -10 -9 -9 -9 -10 -10 -10 -11 -11 -11 -11 -11 -11 -12 -12 -12 -12 -12 -12 -13
-12 -12 -12 -12 -12 -12 -12 -11 -12 -11 -11 -11 -11 -11 -11 -11 -11 -11 -12 -11 -9 -9 -10 -11 -11 -11 -10 -10 -10 -10 -10 -10 -10 -10 -10 -9 -9 -10 -10 -10 -11 -11 -11 -11 -11 -12 -12 -12 -12 -12 -12 -12 -13 -13
-12 -13 -13 -13 -12 -12 -12 -11 -11 -12 -12 -12 -12 -12 -11 -11 -12 -12 -11 -11 -10 -11 -11 -11 -11 -12 -11 -10 -10 -10 -10 -10 -10 -10 -10 -10 -10 -10 -10 -11 -11 -11 -11 -11 -12 -12 -12 -12 -12 -13 -13 -13 -13 -14
-13 -13 -13 -13 -13 -13 -13 -12 -11 -12 -12 -11 -12 -12 -12 -11 -12 -11 -11 -10 -11 -12 -11 -11 -11 -11 -11 -11 -11 -11 -11 -10 -10 -10 -10 -10 -10 -10 -11 -11 -11 -11 -11 -11 -12 -12 -12 -12 -12 -13 -13 -13 -14 -14
-14 -13 -13 -13 -13 -13 -13 -12 -12 -12 -11 -12 -12 -12 -12 -12 -12 -11 -11 -11 -11 -11 -11 -11 -11 -11 -11 -11 -11 -10 -11 -11 -10 -10 -10 -10 -10 -11 -11 -11 -11 -11 -11 -12 -12 -12 -12 -12 -13 -13 -13 -13 -14 -15
-15 -14 -13 -13 -13 -13 -13 -13 -13 -12 -12 -12 -12 -12 -12 -12 -12 -11 -11 -11 -11 -11 -11 -11 -11 -11 -11 -11 -11 -11 -11 -11 -11 -10 -10 -10 -10 -11 -11 -11 -11 -12 -12 -12 -12 -12 -12 -12 -12 -13 -14 -14 -15 -16
-15 -14 -13 -13 -13 -13 -13 -13 -13 -13 -13 -12 -12 -12 -12 -11 -11 -11 -11 -11 -10 -10 -10 -10 -10 -10 -10 -10 -10 -10 -10 -10 -10 -10 -10 -11 -11 -11 -11 -11 -12 -12 -12 -12 -12 -12 -12 -12 -13 -13 -14 -15 -16 -17
-15 -15 -15 -14 -14 -14 -14 -13 -13 -13 -12 -12 -12 -12 -12 -12 -11 -11 -11 -11 -11 -10 -10 -10 -9 -9 -9 -10 -10 -10 -10 -10 -10 -10 -10 -11 -11 -11 -11 -11 -12 -12 -12 -12 -12 -12 -12 -13 -13 -14 -14 -15 -16 -17
-16 -15 -15 -15 -15 -14 -14 -14 -13 -13 -13 -13 -12 -13 -12 -12 -12 -12 -11 -11 -11 -10 -10 -10 -10 -10 -10 -10 -10 -10 -10 -11 -11 -11 -11 -11 -11 -12 -12 -12 -12 -12 -12 -12 -12 -12 -12 -13 -13 -14 -15 -16 -17 -18
-16 -15 -15 -15 -15 -14 -14 -14 -14 -14 -13 -13 -13 -13 -13 -12 -12 -12 -12 -11 -11 -11 -10 -10 -10 -10 -10 -10 -10 -10 -10 -11 -11 -11 -11 -12 -12 -12 -12 -12 -12 -12 -12 -12 -12 -12 -13 -13 -14 -15 -15 -16 -17 -18
-16 -15 -15 -15 -15 -15 -15 -14 -14 -14 -14 -14 -13 -13 -13 -12 -12 -12 -12 -11 -11 -11 -11 -11 -10 -10 -10 -10 -10 -10 -11 -12 -12 -12 -12 -12 -12 -12 -12 -12 -12 -12 -12 -12 -12 -12 -13 -14 -14 -15 -16 -16 -17 -18
-16 -16 -16 -15 -15 -15 -15 -15 -15 -15 -14 -14 -14 -13 -13 -13 -13 -12 -12 -11 -11 -11 -11 -11 -11 -10 -10 -11 -11 -11 -11 -11 -12 -12 -12 -12 -12 -12 -12 -12 -12 -12 -12 -12 -12 -13 -13 -14 -15 -15 -16 -17 -17 -18

GFSWCAN_700_temp_243.txt.gz
Temp
-9 -11 -12 -11 -11 -11 -10 -10 -10 -10 -11 -11 -10 -10 -11 -10 -10 -10 -9 -9 -9 -9 -7 -8 -8 -7 -6 -4 -3 -3 -3 -2 -2 -2 -2 -1 1 1 2 3 4 4 2 2 1 1 1 3 4 3 4 4 4 3
-10 -11 -11 -9 -8 -8 -9 -10 -10 -10 -10 -10 -10 -10 -10 -10 -9 -10 -10 -9 -9 -10 -9 -8 -7 -7 -5 -4 -4 -2 -1 -2 -2 -2 -1 -0 1 1 2 2 2 3 3 4 3 3 3 3 3 3 3 3 2 2
-9 -9 -7 -6 -6 -7 -8 -9 -10 -10 -9 -9 -9 -9 -9 -9 -9 -9 -9 -9 -10 -10 -10 -8 -7 -7 -4 -4 -3 -3 -2 -1 -0 0 -1 0 0 1 1 2 2 2 2 3 3 3 3 2 2 2 2 1 1 1
-8 -7 -7 -6 -7 -7 -8 -9 -9 -9 -9 -9 -9 -9 -9 -9 -9 -9 -9 -9 -9 -10 -10 -8 -6 -6 -4 -3 -3 -3 -2 -2 -1 -1 -1 -1 0 1 1 1 1 1 1 2 1 2 2 2 1 1 1 0 -0 -1
-7 -7 -7 -7 -7 -8 -8 -8 -9 -9 -9 -9 -9 -8 -7 -6 -7 -9 -10 -9 -9 -9 -7 -8 -6 -5 -4 -3 -3 -3 -2 -2 -2 -2 -1 -1 -1 -1 -0 -0 0 0 0 0 1 1 -0 -1 -0 -0 -0 -0 -1 -1
-7 -6 -7 -7 -7 -8 -8 -9 -9 -9 -9 -9 -8 -6 -4 -4 -7 -8 -10 -9 -8 -7 -7 -7 -6 -4 -3 -3 -3 -3 -3 -2 -2 -2 -2 -2 -1 -2 -1 -1 -1 -1 -1 -1 -1 -1 -1 -1 -1 -1 -1 -1 -2 -2
-9 -7 -7 -7 -8 -8 -8 -9 -9 -9 -9 -9 -7 -7 -6 -6 -8 -8 -9 -7 -8 -7 -5 -6 -4 -4 -2 -2 -2 -2 -2 -2 -3 -2 -2 -1 -2 -2 -2 -1 -1 -2 -1 -1 -1 -2 -2 -2 -2 -3 -3 -2 -2 -4
-9 -8 -8 -8 -8 -8 -9 -9 -9 -9 -9 -9 -7 -7 -8 -7 -7 -7 -6 -6 -7 -6 -6 -6 -6 -4 -4 -2 -2 -2 -2 -2 -3 -3 -2 -2 -2 -3 -2 -1 -2 -3 -2 -3 -3 -3 -3 -3 -3 -4 -5 -5 -5 -6
-10 -9 -9 -9 -8 -8 -9 -9 -9 -9 -8 -8 -7 -6 -6 -6 -6 -6 -6 -6 -6 -5 -4 -6 -6 -6 -4 -3 -2 -3 -3 -3 -3 -3 -3 -3 -3 -3 -2 -3 -3 -3 -3 -3 -4 -4 -5 -5 -5 -5 -5 -6 -6 -6
-10 -10 -9 -9 -9 -8 -9 -9 -9 -9 -8 -7 -7 -6 -8 -8 -7 -5 -5 -6 -5 -4 -4 -4 -5 -5 -4 -4 -5 -5 -5 -5 -6 -6 -5 -4 -5 -4 -5 -4 -3 -3 -4 -5 -5 -5 -5 -6 -6 -5 -5 -5 -6 -6
-10 -10 -10 -9 -9 -9 -8 -9 -9 -9 -9 -8 -8 -8 -8 -7 -7 -6 -6 -5 -6 -7 -6 -6 -5 -4 -5 -5 -5 -6 -7 -8 -7 -7 -6 -7 -7 -6 -4 -4 -4 -5 -5 -6 -6 -6 -6 -6 -6 -6 -6 -6 -6 -6
-10 -10 -10 -10 -9 -9 -9 -9 -9 -8 -9 -8 -8 -8 -7 -7 -7 -8 -9 -8 -8 -8 -8 -8 -7 -6 -7 -7 -7 -7 -8 -7 -7 -7 -6 -6 -5 -5 -5 -5 -6 -6 -7 -6 -6 -6 -6 -6 -6 -6 -6 -6 -6 -7
-10 -9 -10 -9 -9 -9 -9 -10 -9 -9 -9 -8 -8 -8 -8 -8 -8 -8 -8 -8 -8 -8 -8 -8 -8 -8 -9 -8 -7 -7 -7 -7 -7 -7 -7 -6 -6 -6 -7 -7 -7 -7 -7 -6 -6 -6 -6 -6 -6 -6 -7 -7 -8 -8
-10 -10 -10 -10 -9 -9 -9 -9 -9 -9 -8 -8 -8 -8 -8 -9 -8 -9 -9 -9 -8 -7 -8 -9 -8 -9 -9 -8 -7 -7 -8 -8 -8 -8 -7 -6 -6 -6 -7 -7 -7 -7 -7 -7 -7 -6 -6 -7 -7 -8 -8 -8 -9 -9
-10 -9 -9 -9 -9 -9 -9 -9 -9 -8 -8 -8 -9 -9 -9 -9 -8 -8 -8 -8 -8 -8 -8 -9 -8 -8 -7 -7 -7 -8 -8 -8 -8 -7 -6 -6 -6 -7 -7 -8 -8 -7 -7 -7 -7 -7 -7 -8 -8 -9 -9 -9 -9 -10
-10 -9 -10 -10 -10 -10 -9 -9 -9 -8 -8 -8 -9 -9 -9 -9 -8 -8 -8 -7 -8 -8 -9 -8 -8 -8 -7 -7 -7 -8 -7 -7 -6 -6 -6 -6 -7 -8 -8 -8 -8 -8 -8 -8 -8 -8 -9 -9 -9 -9 -9 -10 -10 -10
-10 -10 -10 -10 -10 -10 -9 -9 -9 -9 -8 -9 -9 -8 -8 -8 -8 -8 -8 -8 -9 -9 -8 -8 -8 -8 -7 -7 -7 -7 -7 -7 -7 -7 -7 -7 -7 -8 -8 -8 -8 -8 -8 -8 -8 -9 -9 -9 -9 -10 -10 -10 -11 -11
-10 -10 -10 -10 -10 -10 -10 -10 -9 -9 -9 -9 -9 -9 -8 -8 -8 -8 -8 -9 -9 -9 -9 -8 -8 -8 -8 -7 -7 -7 -7 -7 -7 -8 -8 -8 -8 -8 -8 -8 -8 -8 -8 -8 -9 -9 -10 -10 -10 -11 -11 -11 -11 -11
-11 -10 -10 -10 -10 -10 -10 -10 -9 -9 -9 -9 -9 -9 -9 -8 -8 -8 -8 -8 -8 -9 -9 -9 -8 -8 -8 -7 -7 -7 -8 -8 -8 -8 -8 -9 -9 -9 -9 -9 -9 -9 -9 -9 -10 -10 -10 -11 -11 -11 -11 -11 -11 -11
-11 -11 -11 -10 -10 -10 -10 -10 -10 -10 -9 -9 -9 -9 -9 -9 -9 -9 -9 -9 -9 -8 -9 -9 -9 -8 -8 -8 -8 -8 -8 -8 -8 -9 -9 -9 -9 -9 -9 -9 -9 -9 -9 -10 -10 -10 -11 -11 -11 -11 -11 -11 -11 -11
-11 -11 -11 -11 -11 -11 -11 -10 -10 -10 -10 -10 -10 -10 -9 -9 -9 -9 -9 -9 -9 -8 -8 -8 -9 -9 -9 -9 -9 -9 -9 -9 -9 -9 -9 -9 -9 -10 -10 -9 -9 -9 -10 -10 -10 -11 -11 -11 -11 -11 -11 -11 -12 -12
-11 -11 -11 -11 -11 -11 -11 -11 -10 -10 -10 -10 -10 -10 -10 -10 -10 -10 -10 -10 -9 -9 -9 -9 -9 -9 -9 -9 -9 -9 -9 -9 -9 -9 -9 -9 -9 -9 -9 -9 -9 -9 -10 -10 -11 -11 -11 -11 -11 -11 -12 -12 -12 -12
-11 -11 -12 -12 -11 -11 -11 -11 -11 -11 -11 -11 -11 -11 -11 -11 -11 -11 -11 -11 -10 -10 -10 -10 -10 -9 -9 -9 -9 -9 -9 -9 -9 -10 -9 -9 -10 -10 -10 -10 -10 -10 -10 -11 -11 -11 -11 -11 -12 -12 -12 -12 -12 -12
-12 -12 -12 -12 -12 -12 -11 -11 -12 -12 -12 -12 -12 -11 -11 -11 -11 -12 -11 -11 -11 -11 -11 -11 -11 -10 -10 -10 -9 -9 -10 -10 -10 -10 -10 -10 -10 -10 -10 -10 -10 -10 -10 -11 -11 -11 -11 -12 -12 -12 -12 -12 -12 -12
-13 -13 -12 -12 -12 -12 -11 -11 -12 -12 -12 -12 -12 -12 -12 -12 -12 -12 -11 -11 -11 -10 -10 -11 -11 -11 -11 -11 -11 -11 -10 -11 -11 -10 -10 -10 -10 -10 -10 -10 -10 -10 -11 -11 -11 -11 -12 -12 -12 -12 -12 -12 -13 -13
-13 -13 -12 -13 -13 -12 -12 -12 -12 -12 -12 -12 -12 -12 -12 -12 -12 -11 -11 -11 -11 -11 -12 -12 -12 -12 -12 -11 -11 -11 -11 -11 -11 -11 -11 -11 -11 -11 -11 -11 -11 -11 -11 -11 -11 -12 -12 -12 -12 -12 -12 -13 -13 -13
-13 -13 -13 -13 -13 -13 -13 -12 -12 -12 -13 -12 -12 -12 -12 -12 -12 -11 -11 -11 -11 -11 -12 -12 -12 -12 -12 -12 -11 -11 -11 -11 -11 -12 -12 -11 -11 -11 -11 -11 -11 -11 -11 -11 -12 -12 -12 -12 -12 -12 -12 -13 -13 -14
-13 -13 -13 -13 -13 -13 -13 -13 -13 -13 -13 -13 -13 -12 -12 -12 -12 -11 -11 -11 -11 -11 -11 -11 -12 -12 -12 -12 -12 -12 -11 -11 -12 -12 -12 -11 -11 -11 -11 -11 -11 -12 -12 -12 -12 -12 -12 -12 -12 -12 -13 -13 -14 -14
-14 -13 -14 -14 -14 -14 -14 -13 -14 -14 -13 -13 -13 -13 -13 -12 -12 -12 -12 -12 -12 -11 -11 -11 -11 -11 -12 -12 -12 -12 -12 -12 -12 -11 -11 -11 -11 -11 -11 -11 -12 -12 -12 -12 -12 -12 -12 -12 -12 -12 -13 -13 -14 -14
-14 -14 -15 -15 -15 -14 -14 -14 -14 -14 -14 -13 -13 -13 -13 -13 -13 -13 -13 -12 -12 -11 -11 -11 -11 -11 -11 -11 -12 -12 -12 -12 -11 -11 -11 -11 -11 -12 -12 -12 -12 -12 -12 -12 -12 -12 -12 -12 -12 -12 -13 -13 -14 -15
-15 -16 -16 -15 -15 -15 -15 -15 -15 -14 -14 -14 -14 -14 -14 -14 -13 -13 -13 -12 -12 -12 -12 -11 -11 -11 -11 -11 -11 -11 -11 -11 -11 -12 -12 -11 -11 -11 -11 -12 -12 -12 -12 -12 -12 -12 -12 -12 -12 -13 -13 -13 -14 -15
-16 -16 -16 -16 -16 -15 -15 -15 -15 -15 -15 -15 -15 -14 -14 -14 -13 -13 -13 -12 -12 -12 -11 -11 -11 -11 -11 -10 -10 -10 -11 -12 -12 -12 -13 -12 -12 -12 -12 -12 -12 -12 -12 -12 -12 -12 -12 -12 -12 -13 -13 -13 -14 -14
-16 -16 -16 -16 -16 -16 -16 -15 -15 -15 -15 -15 -15 -15 -14 -14 -14 -13 -13 -12 -12 -12 -11 -11 -11 -11 -11 -11 -10 -10 -11 -11 -12 -13 -13 -12 -12 -12 -12 -12 -12 -12 -12 -12 -12 -12 -12 -12 -13 -13 -13 -13 -14 -15

GFSWCAN_700_temp_246.txt.gz
Temp
-8 -9 -11 -11 -12 -12 -11 -11 -11 -10 -10 -10 -10 -10 -11 -11 -11 -11 -10 -10 -10 -10 -9 -9 -9 -10 -10 -10 -9 -6 -5 -4 -3 -2 -2 -2 -0 -0 0 1 2 2 2 3 2 2 1 4 4 4 5 5 5 4
-9 -10 -10 -10 -9 -7 -7 -6 -7 -10 -10 -10 -10 -10 -10 -10 -11 -11 -11 -11 -11 -10 -9 -10 -9 -9 -10 -9 -8 -7 -4 -4 -3 -3 -2 -1 -0 0 1 1 2 2 2 3 3 4 4 4 4 4 4 4 4 3
-10 -10 -8 -7 -7 -8 -7 -7 -8 -9 -10 -10 -10 -10 -10 -10 -10 -11 -11 -11 -11 -10 -10 -10 -10 -8 -9 -9 -8 -7 -5 -5 -3 -1 -2 -1 -1 0 1 1 2 2 2 3 3 4 3 3 3 3 3 3 3 2
-9 -8 -7 -7 -7 -8 -8 -8 -9 -9 -9 -9 -9 -9 -9 -10 -10 -10 -10 -10 -10 -10 -10 -10 -9 -10 -8 -8 -8 -8 -6 -4 -3 -3 -2 -1 -1 -0 0 1 1 2 2 2 2 3 3 2 2 2 2 2 2 1
-9 -7 -7 -7 -8 -8 -8 -9 -9 -9 -9 -9 -9 -9 -9 -9 -10 -10 -10 -10 -9 -10 -10 -9 -8 -8 -8 -8 -8 -7 -6 -5 -4 -2 -2 -2 -1 -1 -0 -0 0 0 1 2 2 2 2 1 0 0 0 0 0 -1
-9 -8 -8 -8 -8 -8 -9 -9 -9 -9 -9 -9 -9 -9 -8 -8 -9 -10 -10 -10 -9 -9 -10 -9 -8 -8 -8 -7 -7 -8 -5 -4 -3 -2 -2 -2 -2 -2 -2 -1 -0 0 1 1 -1 -0 -0 -1 -1 -1 -1 -1 -2 -2
-9 -8 -8 -8 -8 -8 -9 -9 -9 -9 -9 -9 -8 -7 -5 -6 -8 -9 -10 -8 -9 -9 -9 -9 -7 -7 -7 -8 -7 -5 -4 -3 -4 -3 -2 -2 -2 -2 -2 -1 -1 -1 -0 -1 -1 -1 -1 -2 -1 -1 -2 -2 -2 -2
-9 -9 -9 -9 -8 -8 -9 -9 -9 -9 -9 -9 -9 -9 -7 -7 -8 -9 -9 -9 -9 -9 -9 -10 -7 -7 -7 -6 -5 -4 -4 -3 -3 -3 -3 -3 -3 -2 -2 -2 -2 -2 -1 -1 -1 -1 -1 -1 -1 -2 -3 -3 -3 -3
-10 -9 -9 -9 -9 -8 -8 -9 -9 -9 -8 -9 -9 -9 -9 -9 -10 -10 -9 -9 -8 -9 -9 -7 -6 -6 -6 -5 -4 -4 -4 -4 -4 -3 -3 -3 -3 -3 -2 -2 -2 -2 -2 -2 -2 -2 -2 -3 -3 -4 -4 -4 -4 -5
-10 -10 -9 -9 -9 -9 -8 -9 -10 -9 -8 -8 -8 -8 -9 -8 -9 -9 -9 -9 -9 -9 -8 -7 -6 -6 -6 -5 -4 -4 -4 -3 -4 -4 -3 -3 -3 -3 -2 -3 -2 -1 -1 -3 -3 -3 -4 -4 -4 -5 -5 -5 -5 -5
-10 -9 -10 -9 -9 -9 -9 -9 -9 -9 -8 -8 -8 -9 -8 -8 -8 -8 -8 -8 -8 -8 -7 -7 -7 -6 -6 -5 -5 -4 -5 -5 -5 -6 -5 -5 -4 -3 -3 -3 -3 -3 -4 -5 -5 -5 -5 -6 -6 -6 -6 -6 -6 -6
-9 -9 -9 -9 -10 -10 -9 -8 -9 -9 -8 -9 -9 -8 -7 -7 -7 -8 -8 -8 -8 -8 -8 -6 -7 -6 -5 -5 -5 -6 -6 -6 -6 -6 -5 -6 -4 -4 -4 -5 -5 -5 -5 -6 -6 -6 -6 -6 -6 -6 -6 -6 -6 -6
-9 -9 -9 -9 -9 -9 -9 -9 -9 -8 -8 -7 -7 -8 -9 -9 -9 -9 -9 -9 -8 -8 -8 -7 -7 -6 -7 -8 -8 -8 -7 -7 -7 -7 -7 -7 -6 -6 -6 -5 -6 -6 -7 -7 -7 -6 -6 -6 -6 -6 -6 -6 -7 -7
-9 -9 -9 -9 -9 -9 -9 -9 -9 -8 -7 -7 -8 -8 -9 -9 -8 -8 -9 -8 -8 -8 -8 -8 -8 -9 -9 -8 -8 -8 -8 -8 -8 -7 -7 -6 -6 -6 -7 -7 -7 -7 -7 -7 -7 -6 -6 -6 -6 -6 -7 -7 -8 -8
-9 -9 -9 -9 -9 -9 -9 -9 -8 -8 -7 -8 -8 -9 -9 -9 -9 -9 -8 -8 -8 -8 -8 -8 -8 -9 -9 -9 -8 -8 -8 -8 -7 -7 -6 -7 -7 -7 -7 -7 -7 -7 -7 -7 -7 -7 -7 -6 -7 -7 -8 -8 -9 -9
-9 -9 -9 -9 -9 -9 -9 -8 -8 -8 -8 -8 -9 -9 -9 -8 -8 -8 -8 -8 -9 -9 -9 -8 -8 -8 -7 -7 -7 -7 -7 -7 -7 -7 -6 -7 -7 -7 -7 -8 -7 -7 -7 -7 -7 -7 -7 -7 -8 -9 -9 -9 -9 -9
-10 -9 -9 -9 -9 -9 -9 -8 -8 -8 -8 -8 -9 -8 -8 -8 -8 -8 -9 -9 -8 -8 -8 -7 -7 -7 -7 -7 -7 -7 -7 -7 -7 -6 -6 -7 -7 -8 -8 -8 -8 -8 -8 -8 -8 -8 -8 -9 -9 -9 -9 -10 -10 -10
-10 -10 -9 -9 -9 -9 -9 -9 -8 -8 -8 -9 -9 -8 -8 -8 -8 -8 -9 -9 -9 -9 -8 -8 -7 -7 -7 -7 -7 -7 -6 -7 -7 -7 -7 -8 -8 -8 -8 -8 -8 -8 -8 -8 -8 -9 -9 -10 -10 -10 -10 -10 -11 -11
-10 -10 -10 -10 -9 -9 -9 -9 -9 -9 -9 -9 -8 -8 -8 -8 -8 -9 -8 -8 -8 -8 -8 -8 -8 -8 -7 -7 -7 -7 -7 -7 -7 -7 -8 -8 -8 -8 -8 -8 -8 -9 -9 -9 -9 -9 -10 -10 -10 -10 -11 -11 -11 -11
-10 -10 -10 -10 -10 -10 -10 -10 -9 -9 -9 -9 -9 -9 -8 -8 -9 -9 -8 -8 -8 -8 -8 -9 -8 -8 -8 -8 -8 -8 -8 -8 -8 -8 -8 -8 -8 -9 -9 -9 -9 -9 -9 -9 -9 -10 -10 -10 -11 -11 -11 -11 -11 -11
-11 -11 -10 -11 -10 -10 -10 -10 -10 -9 -9 -9 -9 -9 -9 -9 -9 -9 -9 -8 -8 -8 -8 -8 -9 -9 -9 -9 -9 -9 -9 -8 -8 -8 -9 -9 -9 -9 -9 -9 -9 -9 -9 -9 -10 -10 -11 -11 -11 -11 -11 -11 -12 -12
-11 -11 -11 -11 -11 -11 -11 -10 -10 -10 -10 -10 -10 -10 -10 -10 -9 -9 -9 -9 -9 -9 -9 -9 -9 -9 -9 -9 -9 -9 -9 -9 -8 -8 -9 -9 -9 -9 -10 -9 -9 -9 -9 -10 -10 -11 -11 -11 -11 -11 -11 -12 -12 -12
-11 -12 -12 -12 -12 -12 -11 -11 -11 -11 -10 -11 -10 -10 -10 -10 -10 -10 -10 -10 -10 -10 -10 -10 -9 -9 -9 -9 -9 -9 -9 -9 -9 -9 -9 -9 -9 -10 -9 -9 -10 -10 -10 -10 -10 -11 -11 -11 -11 -11 -12 -12 -12 -12
-12 -12 -12 -12 -12 -12 -11 -11 -11 -11 -11 -11 -11 -11 -11 -11 -11 -11 -11 -10 -11 -11 -11 -10 -10 -9 -9 -9 -9 -9 -9 -9 -9 -9 -9 -9 -10 -10 -9 -10 -10 -10 -10 -10 -10 -11 -11 -11 -11 -12 -12 -12 -12 -12
-13 -13 -12 -12 -12 -12 -12 -11 -11 -12 -12 -12 -12 -12 -12 -12 -12 -12 -11 -11 -10 -11 -11 -11 -11 -10 -10 -10 -10 -10 -10 -9 -9 -10 -10 -10 -10 -10 -10 -10 -10 -10 -10 -11 -11 -11 -11 -11 -12 -12 -12 -12 -12 -12
-13 -13 -12 -12 -12 -12 -12 -12 -12 -12 -12 -12 -12 -12 -12 -12 -12 -11 -11 -11 -11 -11 -11 -11 -11 -11 -11 -11 -11 -11 -11 -11 -10 -10 -10 -10 -10 -10 -11 -10 -11 -11 -11 -11 -11 -11 -11 -12 -12 -12 -12 -12 -12 -13
-13 -13 -13 -12 -13 -13 -12 -12 -12 -12 -12 -12 -12 -12 -12 -12 -12 -12 -12 -12 -12 -12 -11 -11 -11 -12 -12 -12 -12 -11 -11 -11 -11 -11 -11 -11 -11 -11 -11 -11 -11 -11 -11 -11 -11 -11 -11 -12 -12 -12 -12 -12 -12 -13
-13 -12 -13 -13 -13 -13 -13 -13 -13 -13 -13 -13 -12 -12 -12 -12 -12 -12 -12 -12 -12 -12 -11 -11 -12 -12 -12 -12 -11 -12 -12 -12 -12 -12 -11 -11 -11 -11 -11 -11 -11 -11 -11 -11 -11 -12 -12 -12 -12 -12 -12 -12 -13 -13
-13 -13 -13 -13 -14 -14 -13 -13 -13 -13 -13 -13 -13 -13 -13 -12 -12 -12 -12 -12 -12 -12 -12 -11 -11 -12 -12 -12 -12 -12 -11 -11 -11 -11 -11 -11 -11 -11 -11 -11 -11 -11 -11 -11 -11 -12 -12 -12 -12 -12 -12 -12 -13 -13
-14 -14 -14 -14 -14 -14 -14 -14 -14 -13 -13 -14 -13 -13 -13 -13 -13 -13 -13 -12 -12 -12 -12 -11 -11 -12 -12 -12 -12 -11 -11 -12 -12 -12 -12 -12 -11 -11 -11 -11 -11 -11 -11 -12 -12 -12 -12 -12 -12 -12 -12 -12 -13 -13
-15 -15 -15 -15 -15 -14 -14 -14 -14 -14 -14 -14 -14 -14 -14 -13 -13 -13 -13 -13 -13 -12 -12 -12 -11 -11 -11 -11 -12 -12 -12 -12 -12 -12 -12 -12 -12 -11 -11 -11 -11 -12 -12 -12 -12 -12 -12 -12 -12 -12 -12 -12 -13 -13
-16 -16 -16 -16 -15 -15 -15 -15 -15 -15 -15 -15 -14 -14 -14 -14 -14 -14 -13 -13 -13 -12 -12 -12 -12 -12 -11 -11 -11 -11 -12 -12 -12 -12 -12 -12 -12 -12 -12 -12 -12 -12 -12 -12 -12 -12 -12 -12 -12 -12 -12 -13 -13 -13
-16 -16 -16 -16 -16 -16 -16 -16 -16 -15 -15 -15 -15 -15 -14 -14 -14 -14 -13 -13 -13 -12 -12 -12 -11 -11 -11 -11 -11 -11 -11 -11 -12 -12 -12 -12 -13 -13 -12 -12 -12 -12 -12 -12 -12 -12 -12 -12 -12 -12 -13 -13 -13 -13

GFSWCAN_700_temp_249.txt.gz
Temp
-9 -9 -9 -9 -10 -10 -10 -9 -9 -10 -11 -11 -11 -11 -11 -11 -11 -11 -11 -11 -12 -12 -11 -11 -10 -10 -10 -11 -11 -8 -9 -9 -9 -10 -8 -7 -6 -2 -2 -0 1 1 -0 -1 -0 -0 1 4 5 5 5 5 5 5
-9 -9 -9 -9 -9 -7 -8 -8 -8 -8 -8 -8 -10 -10 -10 -10 -10 -11 -11 -10 -11 -12 -11 -10 -10 -10 -10 -10 -11 -10 -9 -8 -8 -7 -6 -7 -4 -2 -1 -1 1 1 2 2 2 2 3 4 4 5 5 5 4 4
-9 -9 -9 -8 -7 -8 -8 -8 -8 -8 -9 -9 -9 -10 -10 -10 -10 -10 -10 -10 -11 -11 -11 -11 -10 -8 -10 -10 -11 -11 -9 -8 -8 -8 -6 -4 -3 -1 -1 -0 1 1 1 2 3 3 3 3 3 3 3 3 3 2
-10 -10 -10 -8 -8 -8 -8 -8 -9 -9 -9 -9 -9 -9 -10 -10 -10 -10 -10 -10 -11 -11 -11 -10 -9 -9 -9 -10 -10 -10 -8 -9 -9 -8 -8 -7 -4 -3 -1 0 1 1 1 2 2 3 3 3 3 3 3 3 2 2
-10 -10 -10 -8 -8 -8 -8 -9 -9 -9 -9 -9 -9 -9 -9 -9 -10 -10 -10 -10 -10 -11 -10 -10 -10 -9 -9 -10 -10 -9 -9 -9 -9 -9 -9 -8 -6 -2 -2 -0 0 1 1 2 2 2 2 2 2 2 2 2 1 0
-10 -10 -11 -9 -9 -8 -8 -9 -9 -9 -9 -9 -9 -9 -9 -9 -9 -10 -10 -10 -10 -10 -11 -11 -10 -9 -9 -9 -9 -9 -9 -9 -9 -10 -9 -7 -5 -3 -2 -1 1 1 1 1 1 1 1 0 -0 1 0 -0 -1 -1
-10 -10 -10 -9 -9 -8 -9 -10 -10 -9 -9 -9 -9 -9 -9 -9 -10 -9 -10 -10 -9 -10 -10 -11 -10 -9 -9 -9 -9 -9 -9 -9 -9 -8 -8 -6 -5 -3 -3 -1 -1 0 0 0 0 0 0 -1 -1 -1 -1 -1 -2 -2
-10 -10 -10 -10 -9 -9 -9 -10 -10 -9 -9 -9 -10 -8 -8 -6 -8 -10 -10 -10 -9 -10 -10 -10 -9 -9 -9 -9 -9 -8 -8 -8 -8 -7 -7 -7 -3 -2 -2 -2 -2 -1 -1 -1 -1 -1 -1 -2 -2 -2 -2 -2 -2 -2
-10 -10 -10 -10 -9 -9 -9 -10 -10 -9 -9 -9 -9 -9 -9 -9 -9 -10 -10 -10 -10 -10 -10 -9 -9 -9 -9 -8 -8 -8 -7 -7 -7 -6 -6 -5 -4 -3 -2 -3 -2 -2 -1 -1 -2 -2 -2 -2 -2 -2 -2 -3 -4 -5
-10 -10 -10 -10 -9 -9 -10 -10 -10 -9 -9 -9 -9 -10 -10 -10 -10 -9 -10 -10 -10 -9 -9 -9 -9 -8 -7 -7 -7 -7 -6 -5 -5 -5 -4 -4 -4 -4 -4 -3 -3 -2 -1 -1 -2 -2 -2 -2 -2 -4 -4 -5 -5 -5
-10 -10 -10 -10 -10 -10 -10 -10 -9 -9 -8 -8 -9 -9 -10 -9 -10 -10 -9 -10 -10 -9 -9 -9 -9 -8 -7 -7 -6 -6 -6 -5 -4 -4 -4 -4 -4 -4 -3 -3 -3 -3 -3 -2 -2 -3 -3 -5 -5 -6 -5 -6 -6 -6
-10 -10 -10 -10 -10 -10 -10 -10 -10 -9 -9 -9 -9 -9 -9 -9 -8 -8 -8 -8 -8 -8 -8 -8 -8 -8 -8 -7 -6 -6 -6 -5 -5 -5 -5 -3 -3 -3 -2 -2 -2 -3 -3 -4 -4 -5 -6 -6 -5 -6 -6 -6 -6 -6
-10 -10 -9 -10 -9 -9 -10 -9 -9 -8 -8 -9 -9 -8 -8 -9 -9 -9 -9 -9 -8 -9 -8 -7 -8 -8 -8 -7 -8 -7 -8 -7 -7 -6 -6 -4 -4 -3 -4 -4 -4 -5 -5 -6 -7 -6 -6 -6 -6 -6 -6 -6 -6 -6
-10 -9 -9 -10 -9 -9 -9 -9 -8 -8 -8 -8 -9 -9 -9 -9 -9 -9 -8 -9 -8 -7 -8 -8 -8 -8 -8 -8 -9 -9 -9 -8 -8 -7 -6 -6 -5 -4 -5 -6 -7 -7 -7 -7 -7 -7 -6 -6 -6 -6 -6 -6 -7 -7
-9 -9 -9 -9 -9 -9 -9 -8 -8 -8 -8 -8 -9 -9 -9 -9 -9 -9 -9 -9 -9 -9 -9 -8 -8 -9 -8 -8 -9 -9 -8 -8 -8 -7 -6 -6 -7 -7 -7 -8 -8 -7 -7 -7 -7 -7 -7 -7 -6 -7 -7 -8 -8 -8
-9 -9 -9 -9 -9 -9 -9 -8 -8 -8 -8 -9 -9 -9 -9 -8 -9 -9 -9 -9 -9 -9 -9 -9 -8 -8 -8 -7 -7 -7 -7 -7 -7 -7 -7 -7 -8 -8 -8 -8 -8 -8 -7 -7 -7 -7 -7 -7 -7 -8 -8 -9 -9 -9
-9 -9 -9 -9 -9 -9 -8 -8 -8 -8 -8 -9 -9 -8 -8 -9 -9 -9 -9 -9 -9 -9 -8 -8 -8 -8 -7 -7 -7 -8 -8 -7 -7 -7 -7 -8 -8 -8 -8 -8 -8 -8 -8 -7 -7 -7 -8 -8 -9 -9 -9 -9 -9 -10
-9 -9 -9 -9 -9 -9 -9 -8 -8 -8 -8 -9 -8 -8 -8 -8 -9 -9 -9 -9 -8 -8 -7 -7 -7 -8 -7 -7 -7 -7 -7 -6 -7 -7 -7 -8 -8 -8 -8 -8 -8 -8 -8 -8 -8 -8 -9 -9 -9 -9 -10 -10 -10 -10
-10 -9 -9 -9 -9 -9 -9 -9 -8 -9 -9 -9 -9 -8 -8 -8 -8 -8 -8 -8 -8 -8 -8 -7 -7 -7 -7 -7 -7 -7 -7 -7 -7 -8 -8 -8 -8 -8 -8 -8 -8 -8 -8 -8 -8 -9 -9 -10 -10 -10 -10 -10 -11 -11
-10 -10 -10 -10 -10 -10 -9 -9 -9 -9 -9 -9 -9 -9 -9 -9 -8 -8 -8 -8 -8 -8 -8 -8 -8 -8 -7 -7 -8 -8 -8 -8 -8 -8 -8 -8 -9 -9 -9 -9 -9 -9 -9 -9 -9 -9 -10 -10 -10 -10 -10 -11 -11 -11
-10 -10 -10 -10 -10 -10 -10 -10 -9 -9 -9 -9 -9 -9 -9 -9 -9 -9 -8 -8 -8 -8 -8 -8 -8 -8 -8 -8 -8 -8 -8 -8 -8 -8 -8 -8 -9 -9 -9 -9 -9 -9 -9 -9 -10 -10 -10 -10 -10 -11 -11 -11 -11 -11
-10 -10 -11 -11 -11 -11 -10 -10 -10 -10 -9 -9 -9 -9 -9 -9 -9 -9 -9 -9 -9 -9 -9 -9 -9 -9 -9 -9 -9 -9 -8 -8 -8 -8 -8 -8 -9 -9 -9 -10 -10 -10 -10 -10 -10 -10 -10 -11 -11 -11 -11 -11 -11 -11
-11 -11 -11 -11 -11 -11 -11 -11 -11 -10 -10 -10 -10 -10 -10 -10 -10 -10 -10 -9 -10 -10 -10 -9 -9 -9 -9 -9 -9 -9 -9 -9 -9 -9 -9 -9 -9 -9 -10 -10 -10 -10 -10 -10 -10 -10 -11 -11 -11 -11 -11 -11 -11 -11
-11 -12 -12 -12 -12 -12 -11 -11 -11 -11 -11 -11 -11 -11 -11 -10 -10 -11 -10 -10 -11 -11 -10 -10 -10 -9 -9 -9 -9 -9 -9 -9 -9 -9 -9 -9 -9 -10 -10 -10 -10 -10 -10 -10 -10 -10 -11 -11 -11 -11 -11 -11 -11 -12
-12 -12 -12 -12 -12 -12 -11 -11 -11 -11 -11 -11 -11 -11 -11 -11 -11 -11 -11 -11 -11 -11 -11 -11 -10 -10 -10 -10 -10 -10 -10 -9 -9 -9 -10 -10 -9 -9 -10 -10 -10 -10 -10 -10 -10 -11 -11 -11 -11 -11 -11 -12 -12 -12
-13 -12 -12 -12 -12 -12 -12 -12 -11 -11 -11 -12 -12 -12 -12 -12 -12 -11 -11 -11 -11 -11 -11 -11 -11 -11 -11 -11 -11 -10 -10 -10 -10 -10 -10 -10 -10 -10 -10 -10 -10 -10 -10 -10 -10 -11 -11 -11 -11 -11 -12 -12 -12 -12
-13 -13 -12 -12 -12 -13 -12 -12 -12 -12 -12 -12 -12 -12 -12 -12 -12 -12 -11 -11 -11 -12 -11 -11 -11 -11 -11 -11 -11 -11 -11 -11 -11 -11 -11 -10 -10 -10 -10 -10 -10 -10 -10 -11 -11 -11 -11 -11 -12 -12 -12 -12 -12 -12
-13 -12 -12 -13 -13 -13 -13 -13 -13 -13 -13 -12 -12 -12 -12 -11 -12 -12 -12 -12 -12 -12 -11 -11 -11 -11 -12 -12 -12 -12 -12 -11 -12 -12 -11 -11 -10 -10 -10 -10 -10 -11 -11 -11 -11 -11 -11 -12 -12 -12 -12 -12 -12 -12
-13 -13 -13 -13 -13 -14 -13 -13 -13 -13 -13 -13 -13 -12 -12 -12 -12 -12 -12 -12 -12 -12 -12 -11 -11 -12 -12 -12 -12 -12 -12 -12 -12 -11 -11 -11 -11 -11 -11 -11 -11 -11 -11 -11 -11 -11 -12 -12 -12 -12 -12 -12 -12 -12
-13 -13 -13 -13 -13 -14 -13 -13 -13 -13 -13 -13 -13 -13 -13 -13 -13 -13 -13 -13 -12 -12 -12 -12 -11 -12 -12 -12 -12 -12 -12 -12 -12 -12 -12 -12 -12 -12 -12 -11 -11 -11 -11 -11 -12 -12 -12 -12 -12 -12 -12 -12 -12 -12
-14 -14 -14 -14 -14 -14 -14 -14 -14 -14 -14 -14 -14 -14 -14 -13 -13 -13 -13 -13 -13 -13 -12 -12 -12 -12 -12 -12 -12 -12 -12 -12 -12 -12 -12 -12 -12 -12 -12 -12 -11 -11 -11 -12 -12 -12 -12 -12 -12 -12 -12 -12 -12 -12
-15 -15 -15 -15 -15 -14 -15 -15 -15 -14 -14 -14 -14 -14 -14 -14 -14 -14 -13 -13 -13 -13 -13 -12 -12 -12 -12 -12 -12 -12 -12 -12 -12 -12 -12 -12 -12 -12 -12 -11 -11 -12 -12 -12 -12 -12 -12 -12 -12 -12 -12 -12 -12 -12
-16 -16 -16 -16 -16 -16 -15 -15 -15 -15 -15 -15 -15 -15 -14 -14 -14 -14 -14 -13 -13 -13 -13 -12 -12 -12 -12 -11 -11 -11 -12 -12 -12 -12 -12 -12 -12 -13 -13 -12 -12 -12 -12 -12 -12 -12 -12 -12 -12 -12 -12 -12 -12 -12